ONEWEB-0533 (55141 NORAD) Tracking and Keplerian Element Data

This shows tracking and keplerian element data for the satellite.

Feedback or suggestion? Click here.




ElementValue
Catalog55141
NameONEWEB-0533
Epoch Orbit1123
Epoch Day85.1716221
Epoch Year2023
RAAN253.6002
Inclination86.6208
Eccentricity0.0009755
Argument of Perigee333.1311
Mean Anonmoly26.9396
Mean Motion14.658219
Decay Rate5.05E-06
L11 55141U 23004B 23085.17162210 .00000505 00000+0 88218-4 0 9993
L22 55141 86.6208 253.6002 0009755 333.1311 26.9396 14.65821900 11235



Live tracking and technical data element details for ONEWEB-0533 (NORAD 55141). ONEWEB-0533 can be tracked NOW for your location showing map with azimuth and elevation plus other details from your city location.







IsCatalogInMostPopularTable: catalog: 55141, numindb: 9
Update: records affected: 1



GetName: 55141 ONEWEB-0533

Hit Count: updated at: Mon, 27 Mar 2023 07:01:13 GMT